[[{"header":{"parameterUnit":"m.s-1","parameterCategory":1,"la1":30.2991,"la2":30.254,"lo1":-89.0895,"lo2":-89.0444,"dy":0.0017,"dx":0.0017,"nx":28,"ny":28,"refTime":"2025-03-03T09:00:00:Z","depth":0,"parameterNumber":2,"parameterNumberName":"U-component_of_WINDS"},"data":[0,0,0,0,0,0,0,0,0,0,0,0,0,0,0,0,0,0,0,0,0,0,0,0,0,0,0,0,0,0,0,0,0,0,0,0,0,0,0,0,0,0,0,0,0,0,0,0,0,0,0,0,0,0,0,0,0,0,-6.4613,-6.4614,0,-6.4708,-6.4709,-6.471,-6.4655,-6.4652,-6.465,-6.4647,-6.4743,-6.4748,-6.4753,0,0,0,0,0,0,0,0,0,0,0,0,0,-6.4384,-6.4388,-6.4613,-6.4614,-6.4615,-6.4708,-6.4709,-6.471,-6.4655,-6.4652,-6.4649,-6.4646,-6.4741,-6.4747,-6.4753,0,0,0,0,0,0,0,0,0,0,0,0,0,-6.4482,-6.439,-6.4613,-6.4599,-6.4599,-6.4708,-6.4709,-6.4711,-6.4656,-6.4652,-6.4648,-6.4644,-6.4739,-6.4747,-6.4754,-6.4882,0,0,-6.4777,-6.4781,0,0,0,0,0,0,0,0,-6.4476,-6.449,-6.46,-6.46,-6.46,-6.4665,-6.4663,-6.4768,-6.4657,-6.4634,-6.4647,-6.4642,-6.472,-6.4729,-6.4756,-6.4886,-6.489,-6.4778,-6.4783,-6.4786,-6.4788,0,0,0,0,0,0,0,-6.4469,-6.4486,-6.465,-6.4602,-6.4602,-6.4588,-6.4598,-6.4683,-6.4699,-6.4636,-6.4632,-6.4644,-6.472,-6.4749,-6.4758,-6.4892,-6.4778,-6.4785,-6.4789,-6.4792,-6.513,-6.5134,0,0,0,0,0,0,-6.4464,-6.448,-6.4647,-6.4653,-6.4527,-6.4596,-6.4606,-6.4649,-6.4698,-6.4701,-6.4648,-6.4641,-6.4738,-6.4749,-6.4761,-6.4912,-6.4786,-6.4793,-6.4797,-6.5126,-6.5131,-6.5136,0,0,0,0,0,0,-6.4459,-6.4479,-6.4644,-6.4566,-6.4586,-6.4604,-6.4652,-6.4653,-6.4681,-6.4706,-6.4709,-6.4674,-6.4735,-6.475,-6.4852,-6.4914,-6.4796,-6.4803,-6.512,-6.5127,-6.5133,-6.5215,0,0,0,0,0,0,-6.4453,-6.4478,-6.4526,-6.4567,-6.459,-6.4733,-6.4656,-6.4657,-6.4695,-6.4687,-6.4732,-6.4736,-6.4733,-6.4841,-6.4859,-6.4923,-6.4809,-6.5115,-6.5123,-6.5131,-6.5207,-6.5224,-6.5238,0,0,0,0,0,-6.4445,-6.4545,-6.4529,-6.4549,-6.4651,-6.4737,-6.475,-6.4745,-6.47,-6.4749,-6.4765,-6.4734,-6.4905,-6.4852,-6.4872,-6.4938,-6.5111,-6.5121,-6.5131,-6.52,-6.522,-6.5238,0,0,0,0,0,0,-6.451,-6.455,-6.4533,-6.465,-6.4691,-6.4727,-6.4788,-6.4767,-6.4821,-6.4812,-6.4804,-6.4814,-6.492,-6.494,-6.4879,-6.5064,-6.5001,-6.5015,-6.5046,-6.5066,-6.5082,-6.5073,-6.4816,0,0,0,0,0,-6.4539,-6.4605,-6.4637,-6.4737,-6.4758,-6.477,-6.4808,-6.4801,-6.4842,-6.4859,-6.4882,-6.4924,-6.4987,-6.5028,-6.5087,-6.5211,-6.5219,-6.5267,-6.5282,-6.5295,-6.5306,-6.5372,-6.5393,-6.5168,-6.5168,-6.5168,0,0,-6.4597,-6.4627,-6.467,-6.4751,-6.4781,-6.485,-6.4785,-6.486,-6.4911,-6.487,-6.4967,-6.4986,-6.5032,-6.5144,-6.5195,-6.5164,-6.5371,-6.5308,-6.5318,-6.5322,-6.5384,-6.5406,-6.5424,-6.5175,-6.5174,-6.5173,0,0,-6.4738,-6.4769,-6.4855,-6.4888,-6.4935,-6.4943,-6.4964,-6.5004,-6.5015,-6.5113,-6.5084,-6.5144,-6.5253,-6.5286,-6.5317,-6.5474,-6.5447,-6.5493,-6.5574,-6.5638,-6.5655,-6.5671,-6.5724,-6.5744,-6.5506,-6.5506,-6.5506,0,-6.4805,-6.4907,-6.4902,-6.498,-6.5016,-6.4984,-6.507,-6.5102,-6.5167,-6.5192,-6.5157,-6.5293,-6.5322,-6.5441,-6.5479,-6.5506,-6.5529,-6.5486,-6.5653,-6.5669,-6.5683,-6.5734,-6.5755,-6.5511,-6.551,-6.551,-6.5509,0,-6.4986,-6.5057,-6.5121,-6.5184,-6.5228,-6.531,-6.5317,-6.5363,-6.5353,-6.5364,-6.5463,-6.5497,-6.5562,-6.5591,-6.5582,-6.5709,-6.5688,-6.5654,-6.559,-6.571,-6.5757,-6.5777,-6.5518,-6.5516,-6.5515,-6.5514,0,0,-6.5168,-6.5229,-6.5252,-6.528,-6.5331,-6.5386,-6.5467,-6.5531,-6.5569,-6.5616,-6.5682,-6.5776,-6.5744,-6.578,-6.5775,-6.5831,-6.5951,-6.579,-6.5791,-6.5816,-6.6091,-6.6114,-6.6137,-6.5935,-6.5939,-6.5942,-6.6086,0,-6.531,-6.5451,-6.5449,-6.558,-6.5645,-6.5616,-6.5687,-6.5725,-6.5739,-6.5796,-6.5811,-6.5877,-6.5831,-6.5852,-6.5907,-6.5924,-6.6005,-6.5914,-6.5995,-6.5998,-6.5981,-6.6162,-6.6187,-6.6322,-6.6105,-6.6108,-6.6111,0,-6.5495,-6.5547,-6.5684,-6.5725,-6.5752,-6.5815,-6.5874,-6.593,-6.5973,-6.5979,-6.602,-6.6006,-6.6088,-6.6024,-6.6136,-6.6075,-6.6108,-6.6122,-6.6127,-6.6132,-6.6059,-6.6169,-6.6365,-6.6385,-6.614,-6.6138,-6.6136,0,-6.5611,-6.5716,-6.5811,-6.5836,-6.5887,-6.5932,-6.5955,-6.5995,-6.6034,-6.6086,-6.6111,-6.6172,-6.6204,-6.6252,-6.6255,-6.6208,-6.6367,-6.6304,-6.6373,-6.6373,-6.6405,-6.6402,-6.6606,-6.6432,-6.6432,-6.6431,-6.6431,0,-6.5768,-6.5852,-6.5863,-6.5922,-6.6015,-6.6013,-6.6106,-6.6125,-6.6161,-6.6222,-6.6203,-6.626,-6.6262,-6.6322,-6.6325,-6.6416,-6.6432,-6.6438,-6.6437,-6.6438,-6.6437,-6.6457,-6.6447,-6.6437,-6.6435,-6.6434,-6.6433,0,-6.5912,-6.5924,-6.6025,-6.6065,-6.6078,-6.6144,-6.6179,-6.6234,-6.6247,-6.6324,-6.6342,-6.6362,-6.643,-6.6439,-6.652,-6.6522,-6.6631,-6.6622,-6.6616,-6.6613,-6.6681,-6.6673,-6.6903,-6.6932,-6.6741,-6.6743,-6.6745,0,-6.601,-6.6074,-6.6122,-6.6161,-6.6187,-6.6252,-6.6291,-6.6293,-6.6334,-6.639,-6.6438,-6.6505,-6.6558,-6.667,-6.669,-6.6752,-6.6742,-6.6819,-6.6751,-6.675,-6.674,-6.6735,-6.6741,-6.683,-6.6832,-6.6834,-6.6836,0,-6.6182,-6.6185,-6.6243,-6.6303,-6.6351,-6.6398,-6.6443,-6.6476,-6.6483,-6.6532,-6.6602,-6.6643,-6.6726,-6.6792,-6.6853,-6.6877,-6.6857,-6.6857,-6.6876,-6.6876,-6.6868,-6.6871,-6.6648,-6.6851,-6.685,-6.6848,-6.6848,-6.6847,-6.6305,-6.636,-6.6402,-6.6467,-6.6501,-6.6543,-6.6596,-6.6616,-6.6675,-6.6741,-6.6739,-6.6816,-6.6859,-6.6939,-6.6967,-6.7027,-6.7002,-6.7029,-6.7036,-6.7042,-6.7047,-6.6862,-6.7039,-6.7038,-6.7038,-6.7037,-6.7037,0,-6.6473,-6.6499,-6.6559,-6.6622,-6.6673,-6.6652,-6.6701,-6.6745,-6.6813,-6.6854,-6.6907,-6.6988,-6.7052,-6.7079,-6.7142,-6.7185,-6.7178,-6.7202,-6.7197,-6.7202,-6.7068,-6.7044,-6.7206,-6.7206,-6.7206,-6.7206,-6.7206,-6.7206,-6.6567,-6.6658,-6.6666,-6.6775,-6.68,-6.6875,-6.6904,-6.6943,-6.6976,-6.7067,-6.712,-6.7138,-6.7174,-6.7239,-6.7298,-6.7304,-6.7327,-6.7354,-6.7356,-6.7229,-6.7212,-6.7195,-6.7173,-6.736,-6.736,-6.7485,-6.7486,-6.7487]},{"header":{"parameterUnit":"m.s-1","parameterCategory":1,"la1":30.2991,"la2":30.254,"lo1":-89.0895,"lo2":-89.0444,"dy":0.0017,"dx":0.0017,"nx":28,"ny":28,"refTime":"2025-03-03T09:00:00:Z","depth":0,"parameterNumber":3,"parameterNumberName":"V-component_of_WINDS"},"data":[0,0,0,0,0,0,0,0,0,0,0,0,0,0,0,0,0,0,0,0,0,0,0,0,0,0,0,0,0,0,0,0,0,0,0,0,0,0,0,0,0,0,0,0,0,0,0,0,0,0,0,0,0,0,0,0,0,0,4.0779,4.078,0,4.0827,4.0828,4.0828,4.081,4.0809,4.0808,4.0807,4.0853,4.0855,4.0857,0,0,0,0,0,0,0,0,0,0,0,0,0,4.067,4.0672,4.0779,4.078,4.078,4.0827,4.0828,4.0828,4.081,4.0809,4.0807,4.0806,4.0852,4.0854,4.0857,0,0,0,0,0,0,0,0,0,0,0,0,0,4.0717,4.0673,4.0779,4.0777,4.0777,4.0827,4.0828,4.0829,4.081,4.0809,4.0807,4.0806,4.0851,4.0854,4.0857,4.0911,0,0,4.0868,4.0869,0,0,0,0,0,0,0,0,4.0715,4.0721,4.0777,4.0777,4.0778,4.0811,4.0806,4.0856,4.0811,4.0798,4.0807,4.0805,4.084,4.0844,4.0856,4.0913,4.0915,4.0868,4.087,4.0872,4.0872,0,0,0,0,0,0,0,4.0712,4.0719,4.0798,4.0777,4.0778,4.0773,4.0778,4.0816,4.0827,4.0799,4.0798,4.0804,4.084,4.0853,4.0857,4.0916,4.0868,4.0871,4.0873,4.0874,4.1021,4.1023,0,0,0,0,0,0,4.0708,4.0717,4.0797,4.0799,4.0742,4.0776,4.0782,4.0802,4.0827,4.0829,4.0805,4.0803,4.0848,4.0854,4.0859,4.0924,4.0872,4.0875,4.0877,4.1019,4.1022,4.1024,0,0,0,0,0,0,4.0706,4.0716,4.0795,4.0758,4.0768,4.078,4.0803,4.0804,4.0817,4.0832,4.0833,4.0817,4.0847,4.0854,4.0899,4.0926,4.0876,4.0879,4.1017,4.102,4.1023,4.1055,0,0,0,0,0,0,4.0703,4.0715,4.0736,4.0759,4.077,4.0834,4.0804,4.0806,4.0824,4.0821,4.0843,4.0845,4.0847,4.0894,4.0902,4.0929,4.0882,4.1015,4.1018,4.1022,4.1052,4.1059,4.1065,0,0,0,0,0,4.0699,4.0742,4.0737,4.0746,4.0796,4.0836,4.0842,4.0844,4.0826,4.0847,4.0856,4.0845,4.0922,4.0899,4.0908,4.0936,4.1013,4.1017,4.1021,4.1049,4.1057,4.1065,0,0,0,0,0,0,4.0719,4.0744,4.0739,4.0791,4.0812,4.0833,4.0859,4.0852,4.0878,4.0874,4.0874,4.0879,4.0926,4.0936,4.091,4.0991,4.0965,4.0971,4.0982,4.0991,4.0997,4.0993,4.0885,0,0,0,0,0,4.073,4.0762,4.0781,4.0825,4.0836,4.0846,4.0863,4.0863,4.0884,4.0892,4.0905,4.0925,4.0954,4.0973,4.1,4.1054,4.1059,4.1078,4.1085,4.109,4.1095,4.1125,4.1134,4.1038,4.1038,4.1037,0,0,4.0752,4.077,4.0789,4.0829,4.0845,4.0878,4.0853,4.0887,4.0911,4.0897,4.0941,4.0951,4.0974,4.1024,4.1046,4.1033,4.1123,4.1095,4.1099,4.1102,4.1131,4.114,4.1148,4.104,4.104,4.1039,0,0,4.0808,4.0825,4.0863,4.0881,4.0907,4.0914,4.0923,4.0946,4.0953,4.0997,4.0988,4.1016,4.1066,4.1083,4.1098,4.1164,4.1155,4.1173,4.1207,4.1236,4.1244,4.125,4.1275,4.1283,4.1178,4.1178,4.1178,0,4.0832,4.088,4.0884,4.092,4.0938,4.093,4.0969,4.0985,4.1018,4.1031,4.1016,4.108,4.1095,4.1149,4.1166,4.1178,4.1189,4.117,4.1243,4.1249,4.1256,4.1279,4.1288,4.118,4.118,4.118,4.118,0,4.0908,4.0943,4.0971,4.1005,4.1027,4.1064,4.1073,4.1094,4.1093,4.1102,4.1147,4.1165,4.1197,4.121,4.1208,4.1265,4.1256,4.1242,4.1216,4.1267,4.1289,4.1297,4.1183,4.1183,4.1182,4.1182,0,0,4.0976,4.1014,4.1024,4.1041,4.107,4.1096,4.1134,4.1166,4.1185,4.1209,4.124,4.1284,4.1273,4.129,4.129,4.1316,4.1369,4.13,4.13,4.1312,4.1433,4.1443,4.1453,4.1363,4.1365,4.1366,4.1431,0,4.1035,4.1102,4.1108,4.1168,4.12,4.1194,4.1227,4.1248,4.1258,4.1286,4.1296,4.1328,4.1309,4.132,4.1346,4.1357,4.1393,4.1352,4.1392,4.1394,4.1386,4.1464,4.1474,4.1534,4.144,4.1441,4.1442,0,4.1112,4.114,4.1204,4.1231,4.1245,4.1274,4.1306,4.1333,4.1358,4.1363,4.1384,4.1382,4.142,4.1394,4.1448,4.142,4.1437,4.1445,4.1448,4.1451,4.142,4.1469,4.1554,4.1563,4.1455,4.1454,4.1453,0,4.1155,4.1209,4.1255,4.1269,4.1302,4.1323,4.1337,4.136,4.138,4.1408,4.1421,4.1452,4.1469,4.1493,4.1499,4.1479,4.1553,4.1527,4.1558,4.1558,4.1573,4.1572,4.1661,4.1585,4.1585,4.1584,4.1584,0,4.122,4.1259,4.1276,4.1304,4.1348,4.1355,4.1398,4.1411,4.1433,4.1463,4.1459,4.1487,4.1494,4.1524,4.1529,4.1573,4.1581,4.1586,4.1587,4.1586,4.1585,4.1596,4.1592,4.1587,4.1586,4.1586,4.1585,0,4.1275,4.1288,4.1338,4.1365,4.1373,4.1405,4.1428,4.1456,4.1466,4.1505,4.1514,4.153,4.1565,4.1574,4.1615,4.1619,4.1671,4.1668,4.1663,4.1663,4.1694,4.1691,4.1793,4.1807,4.1722,4.1722,4.1723,0,4.1315,4.1346,4.1378,4.1399,4.1415,4.1449,4.147,4.1478,4.15,4.1532,4.1555,4.1591,4.1619,4.1676,4.169,4.1722,4.172,4.1754,4.1724,4.1724,4.1721,4.1719,4.1722,4.1759,4.1759,4.176,4.1761,0,4.1386,4.1391,4.1422,4.1457,4.1483,4.151,4.1536,4.1553,4.1565,4.159,4.1627,4.1649,4.1693,4.1728,4.1761,4.1775,4.177,4.177,4.1779,4.1779,4.1775,4.1778,4.1678,4.1767,4.1767,4.1766,4.1766,4.1766,4.1435,4.1462,4.149,4.1526,4.1547,4.1572,4.1599,4.1614,4.1646,4.1683,4.1686,4.1726,4.1752,4.1796,4.1812,4.1844,4.1833,4.1846,4.1849,4.1852,4.1855,4.1771,4.185,4.1849,4.1849,4.1849,4.1849,0,4.1505,4.1523,4.1556,4.1594,4.1622,4.1617,4.1646,4.167,4.1706,4.1731,4.176,4.1804,4.1838,4.1857,4.1891,4.1913,4.1912,4.1922,4.192,4.1923,4.1862,4.1851,4.1922,4.1922,4.1922,4.1922,4.1922,4.1922,4.1545,4.1592,4.1601,4.1659,4.1677,4.1717,4.1735,4.1758,4.1778,4.1827,4.1857,4.1869,4.1892,4.1929,4.1961,4.1965,4.1978,4.1989,4.1993,4.1935,4.1927,4.192,4.191,4.1992,4.1992,4.2051,4.2052,4.2052]}]]